カタログに戻る

DMSP 5D-3 F16 DEB

運用中SSO
NORAD 28055·DEBRIS·🇺🇸 United States

打ち上げ Oct 18, 2003 から Vandenberg Space Force Base

Loading…

次のパス (今後24時間)

TLE

最新Source: Space-Track

元期: Sep 14, 2026, 12:21 UTC

1 28055U 03048B   26257.51520866  .00001360  00000-0  49471-3 0  9998
2 28055  98.7740 276.4508 0001269 205.2388 317.1192 14.34889993187429

AllMySatでDMSP 5D-3 F16 DEBをリアルタイム追跡

Download on the App Store